Owosso, MI

8:46 PM EST on February 05, 2016 (GMT -0500)
Owosso

Weather History for KRNP - October, 2013

Change the Weather History Date:

Wednesday, October 30, 2013

  Actual Average (KFNT) Record (KFNT)
Temperature  
Mean Temperature 48 °F 45 °F  
Max Temperature 64 °F 54 °F 77 °F (1950)
Min Temperature 31 °F 36 °F 19 °F (1966)
Degree Days  
Heating Degree Days 18 20  
Month to date heating degree days 466  
Since 1 July heating degree days 676  
Cooling Degree Days 0 0  
Month to date cooling degree days 2  
Year to date cooling degree days 528  
Moisture  
Dew Point 40 °F    
Average Humidity 77    
Maximum Humidity 100    
Minimum Humidity 47    
Precipitation  
Precipitation 0.00 in 0.08 in 0.90 in (2009)
Month to date precipitation 2.40  
Year to date precipitation 26.71  
Snow  
Snow 0.00 in 0.00 in 0.40 in (1993)
Month to date snowfall 0.4  
Since 1 July snowfall 0.4  
Since 1 September snowfall 0.4  
Snow Depth -    
Sea Level Pressure  
Sea Level Pressure 30.11 in    
Wind  
Wind Speed 2 mph (SE)    
Max Wind Speed 10 mph    
Max Gust Speed 17 mph    
Visibility 8 miles    
Events Rain    
T = Trace of Precipitation, MM = Missing Value Source: NWS Daily Summary

Daily Weather History Graph

Daily Weather History Graph

Search for Another Location

Airport or City:

Trip Planner

Search our weather history database for the weather conditions in past years. The results will help you decide how hot, cold, wet, or windy it might be!

Date:

Astronomy

Oct. 30, 2013 Rise Set
Actual Time 8:08 AM EDT 6:30 PM EDT
Civil Twilight 7:39 AM EDT 7:00 PM EDT
Nautical Twilight 7:05 AM EDT 7:33 PM EDT
Astronomical Twilight 6:32 AM EDT 8:06 PM EDT
Moon 3:50 AM EDT (10/30) 4:21 PM EDT (10/30)
Length of Visible Light 11h 20m
Length of Day
10h 22m
Waning Crescent, 17% of the Moon is Illuminated
Oct 30
Waning Crescent
Nov 3
New
Nov 10
First Quarter
Nov 17
Full
Nov 25
Last Quarter

Hourly Weather History & Observations

Time (EDT) Temp. Windchill Dew Point Humidity Pressure Visibility Wind Dir Wind Speed Gust Speed Precip Events Conditions
12:15 AM 39.0 °F - 34.5 °F 84% 30.23 in 10.0 mi Calm Calm - N/A   Clear
12:35 AM 39.4 °F - 34.7 °F 83% 30.22 in 10.0 mi Calm Calm - N/A   Clear
12:55 AM 39.4 °F - 34.5 °F 83% 30.22 in 10.0 mi Calm Calm - N/A   Clear
1:14 AM 38.7 °F - 34.9 °F 86% 30.22 in 10.0 mi Calm Calm - N/A   Clear
1:35 AM 36.7 °F - 34.3 °F 91% 30.21 in 10.0 mi Calm Calm - N/A   Clear
1:55 AM 34.7 °F - 33.1 °F 94% 30.21 in 10.0 mi Calm Calm - N/A   Clear
2:14 AM 34.9 °F 30.8 °F 33.6 °F 95% 30.20 in 10.0 mi SSE 4.6 mph - N/A   Clear
2:35 AM 34.9 °F - 33.8 °F 96% 30.19 in 7.0 mi Calm Calm - N/A   Clear
2:55 AM 35.8 °F - 34.9 °F 97% 30.18 in 10.0 mi Calm Calm - N/A   Clear
3:14 AM 35.4 °F - 33.8 °F 94% 30.18 in 10.0 mi Calm Calm - N/A   Clear
3:35 AM 33.1 °F - 32.0 °F 96% 30.19 in 7.0 mi Calm Calm - N/A   Clear
3:55 AM 33.1 °F - 32.5 °F 98% 30.18 in 5.0 mi Calm Calm - N/A   Clear
4:14 AM 32.2 °F - 32.0 °F 99% 30.18 in 7.0 mi Calm Calm - N/A   Clear
4:35 AM 32.4 °F - 32.0 °F 99% 30.17 in 5.0 mi Calm Calm - N/A   Clear
4:54 AM 32.5 °F - 32.0 °F 98% 30.16 in 5.0 mi Calm Calm - N/A   Clear
5:15 AM 32.7 °F - 32.2 °F 98% 30.16 in 5.0 mi Calm Calm - N/A   Clear
5:35 AM 32.9 °F - 32.5 °F 99% 30.16 in 3.0 mi Calm Calm - N/A   Clear
5:54 AM 32.7 °F - 32.4 °F 99% 30.16 in 4.0 mi Calm Calm - N/A   Clear
6:15 AM 31.6 °F - 31.5 °F 99% 30.16 in 4.0 mi Calm Calm - N/A   Clear
6:35 AM 31.8 °F - 31.6 °F 99% 30.17 in 4.0 mi Calm Calm - N/A   Clear
6:54 AM 31.8 °F - 31.6 °F 99% 30.17 in 4.0 mi Calm Calm - N/A   Clear
7:15 AM 31.5 °F - 31.3 °F 99% 30.16 in 5.0 mi Calm Calm - N/A   Clear
7:34 AM 31.6 °F - 31.3 °F 99% 30.16 in 7.0 mi Calm Calm - N/A   Clear
7:55 AM 31.8 °F - 31.5 °F 99% 30.17 in 5.0 mi Calm Calm - N/A   Clear
8:15 AM 32.0 °F - 31.5 °F 98% 30.17 in 1.5 mi Calm Calm - N/A   Mist
8:34 AM 32.0 °F - 32.0 °F 100% 30.17 in 3.0 mi Calm Calm - N/A   Clear
8:55 AM 32.4 °F - 32.0 °F 99% 30.17 in 3.0 mi Calm Calm - N/A   Clear
9:14 AM 34.0 °F - 33.8 °F 99% 30.18 in 3.0 mi Calm Calm - N/A   Clear
9:35 AM 37.4 °F - 37.0 °F 99% 30.18 in 3.0 mi Calm Calm - N/A   Clear
9:55 AM 42.4 °F - 41.7 °F 97% 30.18 in 4.0 mi Calm Calm - N/A   Clear
10:14 AM 45.3 °F 44.0 °F 43.7 °F 94% 30.18 in 5.0 mi South 3.5 mph - N/A   Clear
10:35 AM 48.0 °F - 43.3 °F 84% 30.17 in 7.0 mi South 3.5 mph - N/A   Clear
10:55 AM 49.8 °F - 43.9 °F 80% 30.17 in 7.0 mi SSE 3.5 mph - N/A   Clear
11:14 AM 51.8 °F - 44.4 °F 76% 30.17 in 10.0 mi Calm Calm - N/A   Clear
11:35 AM 53.6 °F - 43.9 °F 70% 30.17 in 10.0 mi Calm Calm - N/A   Mostly Cloudy
11:54 AM 54.7 °F - 44.6 °F 69% 30.17 in 10.0 mi Calm Calm - N/A   Mostly Cloudy
12:15 PM 55.2 °F - 45.5 °F 70% 30.17 in 10.0 mi Calm Calm - N/A   Scattered Clouds
12:35 PM 55.6 °F - 46.2 °F 71% 30.16 in 10.0 mi Calm Calm - N/A   Scattered Clouds
12:54 PM 57.0 °F - 46.8 °F 69% 30.15 in 10.0 mi South 3.5 mph - N/A   Clear
1:15 PM 58.1 °F - 47.5 °F 68% 30.13 in 10.0 mi East 6.9 mph - N/A   Clear
1:35 PM 58.6 °F - 48.2 °F 68% 30.11 in 7.0 mi East 5.8 mph - N/A   Clear
1:54 PM 59.4 °F - 49.3 °F 69% 30.10 in 10.0 mi Calm Calm - N/A   Clear
2:15 PM 60.6 °F - 49.3 °F 66% 30.09 in 10.0 mi SE 5.8 mph - N/A   Scattered Clouds
2:34 PM 60.8 °F - 49.1 °F 65% 30.08 in 10.0 mi East 5.8 mph - N/A   Scattered Clouds
2:55 PM 60.8 °F - 48.7 °F 64% 30.08 in 7.0 mi Calm Calm - N/A   Clear
3:15 PM 61.9 °F - 48.6 °F 62% 30.08 in 7.0 mi Calm Calm - N/A   Clear
3:34 PM 62.6 °F - 48.0 °F 59% 30.06 in 10.0 mi ESE 5.8 mph - N/A   Clear
3:55 PM 62.8 °F - 47.5 °F 57% 30.06 in 10.0 mi ESE 3.5 mph - N/A   Clear
4:15 PM 63.0 °F - 46.6 °F 55% 30.06 in 10.0 mi South 3.5 mph - N/A   Clear
4:34 PM 64.0 °F - 45.1 °F 50% 30.05 in 10.0 mi SSE 8.1 mph - N/A   Clear
4:55 PM 63.1 °F - 42.8 °F 47% 30.05 in 10.0 mi SSE 5.8 mph - N/A   Clear
5:15 PM 62.2 °F - 42.6 °F 49% 30.04 in 10.0 mi SSE 4.6 mph - N/A   Clear
5:35 PM 61.2 °F - 43.0 °F 51% 30.04 in 10.0 mi SE 4.6 mph - N/A   Clear
5:55 PM 60.4 °F - 42.8 °F 52% 30.03 in 10.0 mi SSE 3.5 mph - N/A   Clear
6:14 PM 59.5 °F - 43.0 °F 54% 30.03 in 10.0 mi SSE 5.8 mph - N/A   Clear
6:35 PM 59.0 °F - 41.9 °F 53% 30.02 in 10.0 mi SE 5.8 mph - N/A   Clear
6:55 PM 58.8 °F - 41.5 °F 53% 30.02 in 10.0 mi SE 3.5 mph - N/A   Mostly Cloudy
7:14 PM 58.3 °F - 41.5 °F 54% 30.03 in 10.0 mi SE 3.5 mph - N/A   Overcast
7:35 PM 58.5 °F - 41.9 °F 54% 30.03 in 10.0 mi ESE 3.5 mph - N/A   Overcast
7:55 PM 58.1 °F - 41.9 °F 55% 30.02 in 10.0 mi ESE 4.6 mph - N/A   Overcast
8:14 PM 57.7 °F - 41.9 °F 56% 30.02 in 10.0 mi SE 6.9 mph - N/A   Mostly Cloudy
8:35 PM 58.1 °F - 41.4 °F 54% 30.02 in 10.0 mi SE 8.1 mph - N/A   Mostly Cloudy
8:55 PM 57.6 °F - 41.0 °F 54% 30.01 in 10.0 mi SE 8.1 mph - N/A   Overcast
9:14 PM 57.4 °F - 41.2 °F 55% 29.99 in 10.0 mi SE 6.9 mph - N/A   Overcast
9:35 PM 57.2 °F - 41.9 °F 57% 29.99 in 10.0 mi SE 5.8 mph - N/A   Overcast
9:54 PM 57.2 °F - 42.8 °F 59% 29.99 in 10.0 mi SSE 8.1 mph - N/A   Overcast
10:15 PM 57.2 °F - 43.9 °F 61% 29.97 in 10.0 mi SSE 9.2 mph - N/A   Overcast
10:34 PM 57.2 °F - 45.1 °F 64% 29.95 in 10.0 mi SSE 6.9 mph - N/A   Overcast
10:55 PM 57.2 °F - 46.8 °F 68% 29.94 in 10.0 mi SSE 6.9 mph - N/A   Overcast
11:15 PM 56.5 °F - 48.7 °F 75% 29.93 in 10.0 mi SSE 10.4 mph 17.3 mph N/A   Light Drizzle
11:34 PM 55.6 °F - 50.7 °F 84% 29.93 in 10.0 mi SSE 8.1 mph - N/A   Drizzle
11:55 PM 55.0 °F - 52.0 °F 89% 29.93 in 7.0 mi SSE 9.2 mph - N/A Rain Light Rain